DW6743 Saro (Goteborg) SE current weather conditions

sailwx.info

Wind from 213 at 10 knots gusting 17

Air temperature 16.1° C
Dewpoint 12.8° C

Last reported at 2019-Aug-22 05:03 UTC.
Time now 2019-Aug-22 05:32 UTC

Location: N 57°31' E 011°57'.
View on Google Maps.

See reports from other nearby stations

  
Tides and Currents Weather Stations Pressure Air Temp Water Temp Dewpoint Dewpoint Depression Visibility Wind Speed Wind Dir Waves Ship Positions
date/time (UTC)wind fromknots sea level pressurealtimeterstation pressurevisibilityair tempwater tempwave heightnotes
2019-Aug-22 05:03 213 10 gusting 17 16.1
2019-Aug-22 04:48 218 11 gusting 15 16.1
2019-Aug-22 04:43 214 12 gusting 17 16.1
2019-Aug-22 04:38 213 10 gusting 17 16.1
2019-Aug-22 04:33 215 7 gusting 17 16.1
2019-Aug-22 04:18 217 8 gusting 14 16.1
2019-Aug-22 04:13 214 9 gusting 14 16.1
2019-Aug-22 04:08 217 8 gusting 15 15.6
2019-Aug-22 04:03 214 7 gusting 12 15.6
2019-Aug-22 03:48 208 8 gusting 14 16.1
2019-Aug-22 03:43 208 8 gusting 12 16.1
2019-Aug-22 03:38 224 10 gusting 15 16.1
2019-Aug-22 03:33 227 12 gusting 15 16.1
2019-Aug-22 03:18 214 8 gusting 13 15.6
2019-Aug-22 03:13 210 7 gusting 13 15.6
2019-Aug-22 03:08 224 11 gusting 14 15.6
2019-Aug-22 03:03 222 7 gusting 13 15.6
2019-Aug-22 02:48 222 7 gusting 12 15.6
2019-Aug-22 02:43 226 8 gusting 13 15.6
2019-Aug-22 02:38 228 8 gusting 13 15.6
2019-Aug-22 02:33 236 9 gusting 13 15.6
2019-Aug-22 02:18 233 11 gusting 13 15.6
2019-Aug-22 02:13 231 11 gusting 13 15.6
2019-Aug-22 02:08 243 11 gusting 13 15.6
2019-Aug-22 02:03 226 8 gusting 12 15.6
2019-Aug-22 01:48 234 8 gusting 13 15.6
2019-Aug-22 01:43 247 11 gusting 13 15.6
2019-Aug-22 01:38 236 10 gusting 14 15.6
2019-Aug-22 01:33 239 8 gusting 13 15.6
2019-Aug-22 01:18 244 12 gusting 14 15.6
2019-Aug-22 01:13 244 12 gusting 14 15.6
2019-Aug-22 01:08 241 11 gusting 13 15.6
2019-Aug-22 01:03 232 8 gusting 13 15.6
2019-Aug-22 00:48 234 10 gusting 13 15.6
2019-Aug-22 00:43 243 11 gusting 14 15.6
2019-Aug-22 00:38 237 10 gusting 13 15.6
2019-Aug-22 00:33 229 10 gusting 17 16.1
2019-Aug-22 00:18 243 11 gusting 14 15.6
2019-Aug-22 00:13 240 12 gusting 14 15.6
2019-Aug-22 00:08 243 11 gusting 13 15.6
2019-Aug-22 00:03 237 11 gusting 14 15.6
2019-Aug-21 23:48 243 10 gusting 13 15.6
2019-Aug-21 23:43 246 12 gusting 13 15.6
2019-Aug-21 23:38 243 11 gusting 13 15.6
2019-Aug-21 23:33 249 11 gusting 13 15.6
2019-Aug-21 23:18 254 8 gusting 12 15.6
2019-Aug-21 23:13 247 9 gusting 12 15.6
2019-Aug-21 23:08 244 8 gusting 12 15.6
2019-Aug-21 23:03 244 9 gusting 12 15.6
2019-Aug-21 22:48 239 11 gusting 13 15.6
2019-Aug-21 22:43 255 10 gusting 13 15.6
2019-Aug-21 22:38 248 10 gusting 12 15.6
2019-Aug-21 22:33 258 8 gusting 12 15.6
2019-Aug-21 22:18 261 8 gusting 11 15.6
2019-Aug-21 22:13 258 6 gusting 13 15.6
2019-Aug-21 22:08 257 7 gusting 13 15.6
2019-Aug-21 22:03 264 10 gusting 14 15.6
2019-Aug-21 21:48 261 10 gusting 13 15.6
2019-Aug-21 21:43 262 8 gusting 13 15.6
2019-Aug-21 21:38 269 9 gusting 13 15.6
2019-Aug-21 21:33 269 12 gusting 13 15.6
2019-Aug-21 21:18 279 11 gusting 13 15.6
2019-Aug-21 21:13 276 11 gusting 14 15.6
2019-Aug-21 21:08 262 12 gusting 15 15.6
2019-Aug-21 21:03 266 12 gusting 15 15.6
2019-Aug-21 20:48 268 12 gusting 17 15.6
2019-Aug-21 20:43 267 11 gusting 14 15.6
2019-Aug-21 20:38 266 14 gusting 17 15.6
2019-Aug-21 20:33 270 12 gusting 17 15.6
2019-Aug-21 20:18 255 13 gusting 17 15.6
2019-Aug-21 20:13 271 13 gusting 17 15.6
2019-Aug-21 20:08 258 12 gusting 14 15.6
2019-Aug-21 20:03 275 13 gusting 17 15.6
2019-Aug-21 19:48 269 13 gusting 17 15.6
2019-Aug-21 19:43 266 14 gusting 17 15.6
2019-Aug-21 19:38 270 13 gusting 17 15.6
2019-Aug-21 19:33 274 13 gusting 17 15.6
2019-Aug-21 19:18 273 11 gusting 17 15.6
2019-Aug-21 19:13 265 13 gusting 14 15.6
2019-Aug-21 19:08 273 13 gusting 15 15.6
2019-Aug-21 19:03 268 13 gusting 17 15.6
2019-Aug-21 18:48 269 13 gusting 15 15.6
2019-Aug-21 18:43 272 11 gusting 17 15.6
2019-Aug-21 18:38 280 9 gusting 17 16.1
2019-Aug-21 18:33 281 10 gusting 17 16.1
2019-Aug-21 18:18 277 15 gusting 18 16.1
2019-Aug-21 18:13 266 11 gusting 14 16.1
2019-Aug-21 18:08 274 13 gusting 17 16.1
2019-Aug-21 18:03 279 11 gusting 15 16.1
2019-Aug-21 17:48 270 11 gusting 14 16.1
2019-Aug-21 17:43 279 11 gusting 13 16.1
2019-Aug-21 17:38 271 11 gusting 14 16.7
2019-Aug-21 17:33 279 11 gusting 13 16.7
2019-Aug-21 17:18 275 13 gusting 17 16.7
2019-Aug-21 17:13 275 10 gusting 13 16.7
2019-Aug-21 17:08 274 9 gusting 13 17.2
2019-Aug-21 17:03 276 12 gusting 14 17.2
2019-Aug-21 16:48 279 10 gusting 14 17.2
2019-Aug-21 16:43 272 12 gusting 18 17.2
2019-Aug-21 16:38 272 12 gusting 17 17.2
2019-Aug-21 16:33 274 11 gusting 14 17.2
2019-Aug-21 16:18 282 12 gusting 13 16.7
2019-Aug-21 16:13 271 10 gusting 13 16.7
2019-Aug-21 16:08 290 11 gusting 13 16.7
2019-Aug-21 16:03 282 12 gusting 14 17.2
2019-Aug-21 15:48 306 8 gusting 13 16.7
2019-Aug-21 15:43 307 10 gusting 14 17.2
2019-Aug-21 15:38 312 10 gusting 13 17.2
2019-Aug-21 15:33 287 6 gusting 14 17.2
2019-Aug-21 15:18 307 8 gusting 13 17.2
2019-Aug-21 15:13 303 10 gusting 14 17.2
2019-Aug-21 15:08 285 11 gusting 15 17.2
2019-Aug-21 15:03 303 8 gusting 17 16.7
2019-Aug-21 14:48 305 11 gusting 14 17.2
2019-Aug-21 14:43 293 6 gusting 13 17.2
2019-Aug-21 14:38 287 9 gusting 13 17.2
2019-Aug-21 14:33 304 6 gusting 17 17.2
2019-Aug-21 14:18 304 8 gusting 13 17.2
2019-Aug-21 14:13 306 11 gusting 14 17.2
2019-Aug-21 14:08 308 11 gusting 15 17.2
2019-Aug-21 14:03 314 6 gusting 17 16.7
2019-Aug-21 13:48 300 10 gusting 13 16.7
2019-Aug-21 13:43 295 11 gusting 13 17.2
2019-Aug-21 13:38 300 11 gusting 14 17.2
2019-Aug-21 13:33 300 10 gusting 15 17.2
2019-Aug-21 13:18 331 9 gusting 15 17.2
2019-Aug-21 13:13 307 11 gusting 15 17.2
2019-Aug-21 13:08 293 9 gusting 14 17.2
2019-Aug-21 13:03 292 10 gusting 17 17.2
2019-Aug-21 12:48 287 11 gusting 14 17.2
2019-Aug-21 12:43 287 11 gusting 17 17.2
2019-Aug-21 12:38 300 11 gusting 15 17.2
2019-Aug-21 12:33 279 9 gusting 15 17.2
2019-Aug-21 12:18 280 11 gusting 17 16.7
2019-Aug-21 12:13 282 11 gusting 14 16.7
2019-Aug-21 12:08 285 13 gusting 17 16.7
2019-Aug-21 12:03 293 10 gusting 15 16.7
2019-Aug-21 11:48 278 9 gusting 14 16.7
2019-Aug-21 11:43 276 11 gusting 14 16.7
2019-Aug-21 11:38 284 9 gusting 14 16.7
2019-Aug-21 11:33 287 10 gusting 13 17.2
2019-Aug-21 11:18 265 10 gusting 13 17.2
2019-Aug-21 11:13 255 12 gusting 14 17.2
2019-Aug-21 11:08 263 13 gusting 17 16.7
2019-Aug-21 11:03 269 11 gusting 17 16.7
2019-Aug-21 10:48 255 12 gusting 17 17.2
2019-Aug-21 10:43 249 14 gusting 17 16.7
2019-Aug-21 10:38 256 13 gusting 17 16.7
2019-Aug-21 10:33 249 13 gusting 17 16.7
2019-Aug-21 10:18 263 12 gusting 14 16.7
2019-Aug-21 10:13 255 11 gusting 15 16.7
2019-Aug-21 10:08 260 9 gusting 13 16.7
2019-Aug-21 10:03 271 13 gusting 18 16.7
2019-Aug-21 09:48 265 13 gusting 15 16.7
2019-Aug-21 09:43 267 12 gusting 15 16.7
2019-Aug-21 09:38 264 10 gusting 15 16.7
2019-Aug-21 09:33 262 11 gusting 17 16.7
2019-Aug-21 09:18 277 13 gusting 17 16.7
2019-Aug-21 09:13 284 13 gusting 17 16.7
2019-Aug-21 09:08 276 13 gusting 18 16.7
2019-Aug-21 09:03 277 12 gusting 17 16.7
2019-Aug-21 08:48 266 13 gusting 17 16.1
2019-Aug-21 08:43 270 13 gusting 17 16.1
2019-Aug-21 08:38 270 13 gusting 17 16.1
2019-Aug-21 08:33 265 11 gusting 18 16.1
2019-Aug-21 08:18 273 13 gusting 17 16.1
2019-Aug-21 08:13 281 13 gusting 18 16.1
2019-Aug-21 08:08 262 13 gusting 15 16.1
2019-Aug-21 08:03 274 11 gusting 19 16.1
2019-Aug-21 07:48 273 13 gusting 17 15.6
2019-Aug-21 07:43 273 14 gusting 17 15.6
2019-Aug-21 07:38 277 10 gusting 14 15.6
2019-Aug-21 07:33 274 12 gusting 17 16.1
2019-Aug-21 07:18 295 11 gusting 15 15.6
2019-Aug-21 07:13 271 12 gusting 13 15.6
2019-Aug-21 07:08 266 12 gusting 14 16.1
2019-Aug-21 07:03 269 10 gusting 15 16.1
2019-Aug-21 06:48 288 6 gusting 12 15.0
2019-Aug-21 06:43 288 8 gusting 12 15.0
2019-Aug-21 06:38 300 7 gusting 13 15.0
2019-Aug-21 06:33 305 11 gusting 17 15.0
2019-Aug-21 06:18 281 13 gusting 17 15.6
2019-Aug-21 06:13 282 13 gusting 17 15.6
2019-Aug-21 06:08 277 11 gusting 17 15.6
2019-Aug-21 06:03 274 12 gusting 17 15.6
2019-Aug-21 05:48 265 12 gusting 17 15.6
2019-Aug-21 05:43 277 13 gusting 17 15.0
2019-Aug-21 05:38 271 12 gusting 17 15.6
2019-Aug-21 05:33 270 13 gusting 17 15.6
2019-Aug-21 05:18 266 11 gusting 13 15.0
2019-Aug-21 05:13 263 11 gusting 13 15.0
2019-Aug-21 05:08 259 11 gusting 13 15.0
2019-Aug-21 05:03 254 10 gusting 13 15.0
2019-Aug-21 04:48 263 10 gusting 15 15.0
2019-Aug-21 04:43 266 10 gusting 15 15.0
2019-Aug-21 04:38 273 13 gusting 15 15.0
2019-Aug-21 04:33 265 13 gusting 14 15.6
2019-Aug-21 04:18 256 10 gusting 13 15.0
2019-Aug-21 04:13 273 9 gusting 12 15.0
2019-Aug-21 04:08 276 10 gusting 12 15.0
2019-Aug-21 04:03 273 11 gusting 13 15.0
2019-Aug-21 03:48 271 10 gusting 12 15.0
2019-Aug-21 03:43 277 11 gusting 13 15.0
2019-Aug-21 03:38 273 12 gusting 13 15.0
2019-Aug-21 03:33 268 12 gusting 15 15.0
2019-Aug-21 03:18 255 12 gusting 15 15.0
2019-Aug-21 03:13 254 13 gusting 17 15.0
2019-Aug-21 03:08 265 12 gusting 15 15.0
2019-Aug-21 03:03 258 13 gusting 17 15.0
2019-Aug-21 02:48 245 13 gusting 18 15.6
2019-Aug-21 02:43 252 12 gusting 18 15.6
2019-Aug-21 02:38 249 14 gusting 17 15.6
2019-Aug-21 02:33 250 13 gusting 18 15.6
2019-Aug-21 02:18 250 15 gusting 19 15.6
2019-Aug-21 02:13 243 13 gusting 18 15.6
2019-Aug-21 02:08 246 12 gusting 13 15.6
2019-Aug-21 02:03 246 10 gusting 15 15.6
2019-Aug-21 01:48 252 13 gusting 14 15.6
2019-Aug-21 01:43 252 11 gusting 14 15.6
2019-Aug-21 01:38 246 12 gusting 15 15.6
2019-Aug-21 01:33 237 13 gusting 17 15.6
2019-Aug-21 01:18 250 12 gusting 14 15.6
2019-Aug-21 01:13 237 12 gusting 14 15.6
2019-Aug-21 01:08 242 12 gusting 14 15.6
2019-Aug-21 01:03 243 11 gusting 17 15.6
2019-Aug-21 00:48 245 12 gusting 15 16.1
2019-Aug-21 00:43 239 12 gusting 13 15.6
2019-Aug-21 00:38 252 12 gusting 14 15.6
2019-Aug-21 00:33 242 13 gusting 17 15.6
2019-Aug-21 00:18 249 12 gusting 17 15.6
2019-Aug-21 00:13 242 13 gusting 14 15.6
2019-Aug-21 00:08 242 13 gusting 17 15.6
2019-Aug-21 00:03 240 12 gusting 17 16.1
2019-Aug-20 23:48 253 11 gusting 13 16.1
2019-Aug-20 23:43 242 10 gusting 13 16.1
2019-Aug-20 23:38 248 11 gusting 13 16.1
2019-Aug-20 23:33 260 10 gusting 17 16.1
2019-Aug-20 23:18 247 13 gusting 15 16.1
2019-Aug-20 23:13 249 12 gusting 17 16.1
2019-Aug-20 23:08 249 14 gusting 17 16.1
2019-Aug-20 23:03 250 12 gusting 17 16.1
2019-Aug-20 22:48 247 11 gusting 17 16.1
2019-Aug-20 22:43 253 13 gusting 17 16.1
2019-Aug-20 22:38 257 11 gusting 13 16.1
2019-Aug-20 22:33 247 11 gusting 15 16.1
2019-Aug-20 22:18 267 12 gusting 15 16.1
2019-Aug-20 22:13 258 14 gusting 17 16.1
2019-Aug-20 22:08 258 13 gusting 18 16.1
2019-Aug-20 22:03 254 13 gusting 18 16.1
2019-Aug-20 21:48 255 14 gusting 17 16.7
2019-Aug-20 21:43 265 14 gusting 20 16.7
2019-Aug-20 21:38 266 17 gusting 20 16.7
2019-Aug-20 21:33 261 13 gusting 19 16.7
2019-Aug-20 21:18 257 13 gusting 18 16.7
2019-Aug-20 21:13 266 13 gusting 19 16.7
2019-Aug-20 21:08 257 13 gusting 17 16.7
2019-Aug-20 21:03 251 13 gusting 19 16.7
2019-Aug-20 20:48 248 14 gusting 17 16.7
2019-Aug-20 20:43 245 13 gusting 18 16.7
2019-Aug-20 20:38 258 14 gusting 18 16.7
2019-Aug-20 20:33 248 14 gusting 15 16.7
2019-Aug-20 20:18 225 8 gusting 13 16.7
2019-Aug-20 20:13 238 12 gusting 14 16.7
2019-Aug-20 20:08 227 9 gusting 15 16.7
2019-Aug-20 20:03 243 10 gusting 13 16.7
2019-Aug-20 19:43 216 7 gusting 10 16.7
2019-Aug-20 19:38 218 6 gusting 11 16.7
2019-Aug-20 19:33 225 9 gusting 13 16.7
2019-Aug-20 19:18 212 6 gusting 11 16.7
2019-Aug-20 19:13 212 6 gusting 11 16.7
2019-Aug-20 19:08 216 6 gusting 10 16.7
2019-Aug-20 19:03 221 5 gusting 12 16.7
2019-Aug-20 18:48 197 6 gusting 8 16.7
2019-Aug-20 18:43 211 6 gusting 10 16.7
2019-Aug-20 18:38 213 7 gusting 10 16.7
2019-Aug-20 18:33 216 7 gusting 11 16.7
2019-Aug-20 18:18 216 4 gusting 10 16.7
2019-Aug-20 18:13 210 7 gusting 8 16.7
2019-Aug-20 18:08 217 5 gusting 10 16.7
2019-Aug-20 18:03 209 4 gusting 8 16.7
2019-Aug-20 17:48 223 4 gusting 10 16.7
2019-Aug-20 17:43 226 6 gusting 10 17.2
2019-Aug-20 17:38 227 6 gusting 7 17.2
2019-Aug-20 17:33 233 6 gusting 10 17.2
2019-Aug-20 17:18 246 5 gusting 7 17.2
2019-Aug-20 17:13 251 4 gusting 7 17.2
2019-Aug-20 17:08 272 4 gusting 7 17.2
2019-Aug-20 17:03 279 5 gusting 10 17.8
2019-Aug-20 16:48 263 7 gusting 11 17.2
2019-Aug-20 16:43 261 8 gusting 10 17.2
2019-Aug-20 16:38 256 8 gusting 11 17.2
2019-Aug-20 16:33 243 9 gusting 14 17.2
2019-Aug-20 16:18 235 11 gusting 13 17.2
2019-Aug-20 16:13 233 8 gusting 11 17.2
2019-Aug-20 16:08 229 7 gusting 12 17.8
2019-Aug-20 16:03 222 11 gusting 13 17.8
2019-Aug-20 15:48 236 11 gusting 14 18.3
2019-Aug-20 15:43 241 10 gusting 14 18.3
2019-Aug-20 15:38 209 13 gusting 15 18.3
2019-Aug-20 15:33 229 11 gusting 17 18.3
2019-Aug-20 15:18 209 6 gusting 10 17.8
2019-Aug-20 15:13 202 8 gusting 13 18.3
2019-Aug-20 15:08 225 7 gusting 11 18.3
2019-Aug-20 15:03 211 6 gusting 13 18.3
2019-Aug-20 14:48 223 8 gusting 14 18.9
2019-Aug-20 14:43 195 9 gusting 12 18.3
2019-Aug-20 14:38 204 9 gusting 13 18.3
2019-Aug-20 14:33 201 7 gusting 13 18.3
2019-Aug-20 14:18 218 8 gusting 13 19.4
2019-Aug-20 14:13 210 6 gusting 10 18.9
2019-Aug-20 14:08 216 11 gusting 15 18.9
2019-Aug-20 14:03 204 11 gusting 15 19.4
2019-Aug-20 13:48 205 11 gusting 14 18.9
2019-Aug-20 13:43 223 8 gusting 14 18.9
2019-Aug-20 13:38 193 9 gusting 12 18.9
2019-Aug-20 13:33 217 6 gusting 13 18.9
2019-Aug-20 13:18 208 9 gusting 13 18.3
2019-Aug-20 13:13 226 10 gusting 13 18.3
2019-Aug-20 13:08 222 8 gusting 15 18.9
2019-Aug-20 13:03 212 7 gusting 13 18.9
2019-Aug-20 12:48 229 12 gusting 13 18.9
2019-Aug-20 12:43 208 12 gusting 15 19.4
2019-Aug-20 12:38 236 12 gusting 14 18.9
2019-Aug-20 12:33 212 13 gusting 15 18.9
2019-Aug-20 12:18 216 10 gusting 13 18.9
2019-Aug-20 12:13 206 8 gusting 14 18.9
2019-Aug-20 12:08 237 12 gusting 17 18.9
2019-Aug-20 12:03 209 7 gusting 13 18.9
2019-Aug-20 11:48 214 11 gusting 15 18.9
2019-Aug-20 11:43 215 11 gusting 17 18.3
2019-Aug-20 11:38 217 11 gusting 15 18.9
2019-Aug-20 11:33 202 12 gusting 15 18.9
2019-Aug-20 11:18 205 7 gusting 13 18.3
2019-Aug-20 11:13 237 8 gusting 14 18.3
2019-Aug-20 11:08 216 12 gusting 17 18.3
2019-Aug-20 11:03 214 10 gusting 14 18.3
2019-Aug-20 10:48 208 11 gusting 15 18.3
2019-Aug-20 10:43 215 10 gusting 13 18.3
2019-Aug-20 10:38 216 11 gusting 13 18.3
2019-Aug-20 10:33 232 8 gusting 14 18.3
2019-Aug-20 10:18 202 10 gusting 13 17.8
2019-Aug-20 10:13 228 6 gusting 12 18.3
2019-Aug-20 10:08 204 8 gusting 12 17.8
2019-Aug-20 10:03 234 11 gusting 15 18.3
2019-Aug-20 09:48 239 10 gusting 13 18.3
2019-Aug-20 09:43 205 7 gusting 13 17.8
2019-Aug-20 09:38 232 10 gusting 13 17.8
2019-Aug-20 09:33 235 11 gusting 14 17.8
2019-Aug-20 09:18 237 12 gusting 15 17.8
2019-Aug-20 09:13 230 10 gusting 13 17.8
2019-Aug-20 09:08 222 8 gusting 13 17.2
2019-Aug-20 09:03 233 10 gusting 14 17.2
2019-Aug-20 08:48 231 10 gusting 14 17.2
2019-Aug-20 08:43 237 12 gusting 14 17.2
2019-Aug-20 08:38 223 6 gusting 13 17.2
2019-Aug-20 08:33 236 10 gusting 13 17.2
2019-Aug-20 08:18 220 8 gusting 13 17.2
2019-Aug-20 08:13 212 9 gusting 13 17.2
2019-Aug-20 08:08 220 6 gusting 13 17.2
2019-Aug-20 08:03 224 8 gusting 14 17.2
2019-Aug-20 07:48 235 7 gusting 12 17.2
2019-Aug-20 07:43 241 10 gusting 12 17.2
2019-Aug-20 07:38 248 9 gusting 11 17.2
2019-Aug-20 07:33 220 9 gusting 13 17.2
2019-Aug-20 07:18 223 8 gusting 12 16.7
2019-Aug-20 07:13 234 11 gusting 14 16.7
2019-Aug-20 07:08 241 7 gusting 11 16.7
2019-Aug-20 07:03 221 10 gusting 13 16.7
2019-Aug-20 06:48 236 11 gusting 13 16.1
2019-Aug-20 06:43 233 7 gusting 12 16.1
2019-Aug-20 06:38 241 10 gusting 13 16.1
2019-Aug-20 06:33 237 7 gusting 13 16.1
2019-Aug-20 06:18 225 7 gusting 11 16.1
2019-Aug-20 06:13 230 7 gusting 10 16.1
2019-Aug-20 06:08 234 9 gusting 13 16.1
2019-Aug-20 06:03 227 8 gusting 12 16.1
2019-Aug-20 05:48 227 7 gusting 11 15.6
2019-Aug-20 05:43 228 10 gusting 12 15.6
2019-Aug-20 05:38 242 10 gusting 13 15.6
2019-Aug-20 05:33 236 10 gusting 13 15.6
2019-Aug-20 05:18 242 10 gusting 13 15.6
2019-Aug-20 05:13 244 10 gusting 13 15.6
2019-Aug-20 05:08 247 11 gusting 14 15.6
2019-Aug-20 05:03 243 12 gusting 15 15.6